Weather in Buzovitsa

Ukraine / Chernovtci District     48°30′04″N   26°55′38″E
temp.,
°C
wind,
m/s
gust,
m/s
humid.,
%
clouds,
%
prec.,
mm/h
press.,
hPa
HPBL,
m
12 august, fri
fri1200:00+18n378076 0.0 1019165
03:00+17nnw2386100 0.1 101983
06:00+16n359289 0.0 1019114
09:00+18n468594 0.6 1018332
12:00+22n4673100 0.6 1018797
15:00+20nne498495 2.4 1017333
18:00+21ne577475 0.3 1017530
21:00+18nne369333 0.3 1017125
13 august, sat
sat1300:00+17nne239524 0.0 101642
03:00+16nnw3494100 0.0 101573
06:00+17nnw3791100 0.0 1014196
09:00+20nne4684100 0.1 1013405
12:00+26nne3457100 0.0 10121166
15:00+27n3455100 2.7 10101280
18:00+25nw3562100 0.1 1009186
21:00+22nne4107688 0.1 1009222
14 august, sun
sun1400:00+21ne41079100 0.1 1008235
03:00+19nw3379100 0.1 100850
06:00+17nne2289100 0.2 100831
09:00+21nne4576100 0.5 1008415
12:00+21ne3483100 3.6 1008326
15:00+26ne3450100 3.6 10081114
18:00+27ene465171 0.0 10071269
21:00+18ssw1185100 0.8 100817
15 august, mon
mon1500:00+17nnw118747 0.8 100811
03:00+17n2286100 0.9 100715
06:00+17ne2281100 0.1 100716
09:00+20n2273100 1.9 1007144
12:00+26nw2149100 0.0 1006681
15:00+29w214187 0.0 10061335
18:00+29w2241100 0.0 10051449
21:00+23wnw22637 0.0 100617
16 august, tue
tue1600:00+20wnw22722 0.0 100723
03:00+19nnw22802 0.3 100615
06:00+18w22814 0.0 100714
09:00+23w34617 0.0 1007318
12:00+27w22495 0.0 1007941
15:00+30w44395 0.0 10071930
18:00+30wsw24354 0.0 10062184
21:00+18sse3592100 8.3 100993